Time,TemperatureF,DewpointF,PressureIn,WindDirection,WindDirectionDegrees,WindSpeedMPH,WindSpeedGustMPH,Humidity,HourlyPrecipIn,Conditions,Clouds,dailyrainin,SolarRadiationWatts/m^2,SoftwareType,DateUTC
2013-04-06 00:02:00,39.0,37.0,-100.00,SSW,192,4.0,13.0,93,0.01,,,-99.99,0.000000,,2013-04-06 07:02:00,
2013-04-06 00:12:00,39.0,37.0,-100.00,SSW,192,4.0,13.0,93,0.01,,,-99.99,0.000000,,2013-04-06 07:12:00,
2013-04-06 00:33:00,40.0,37.0,-100.00,SE,141,5.0,11.0,90,0.00,,,0.08,0.000000,,2013-04-06 07:33:00,
2013-04-06 00:44:00,40.0,37.0,-100.00,SE,141,5.0,11.0,90,0.00,,,0.08,0.000000,,2013-04-06 07:44:00,
2013-04-06 00:52:00,40.0,37.0,-100.00,SE,141,5.0,11.0,90,0.00,,,0.08,0.000000,,2013-04-06 07:52:00,
2013-04-06 01:02:00,40.0,37.0,-100.00,SE,141,5.0,11.0,90,0.00,,,0.08,0.000000,,2013-04-06 08:02:00,
2013-04-06 01:12:00,40.0,37.0,-100.00,SE,141,5.0,11.0,90,0.00,,,0.08,0.000000,,2013-04-06 08:12:00,
2013-04-06 01:42:00,40.0,36.0,-100.00,SSE,150,5.0,14.0,85,0.00,,,0.08,0.000000,,2013-04-06 08:42:00,
2013-04-06 01:52:00,40.0,36.0,-100.00,SSE,150,5.0,14.0,85,0.00,,,0.08,0.000000,,2013-04-06 08:52:00,
2013-04-06 02:02:00,40.0,36.0,-100.00,SSE,150,5.0,14.0,85,0.00,,,0.08,0.000000,,2013-04-06 09:02:00,
2013-04-06 02:43:00,40.0,37.0,-100.00,SE,137,5.0,14.0,88,0.00,,,0.08,0.000000,,2013-04-06 09:43:00,
2013-04-06 02:53:00,40.0,37.0,-100.00,SE,137,5.0,14.0,88,0.00,,,0.08,0.000000,,2013-04-06 09:53:00,
2013-04-06 03:02:00,40.0,37.0,-100.00,SE,137,5.0,14.0,88,0.00,,,0.08,0.000000,,2013-04-06 10:02:00,
2013-04-06 03:12:00,40.0,37.0,-100.00,SE,137,5.0,14.0,88,0.00,,,0.08,0.000000,,2013-04-06 10:12:00,
2013-04-06 03:33:00,40.0,37.0,-100.00,SSE,156,5.0,14.0,90,0.01,,,0.09,0.000000,,2013-04-06 10:33:00,
2013-04-06 03:43:00,40.0,37.0,-100.00,SSE,156,5.0,14.0,90,0.01,,,0.09,0.000000,,2013-04-06 10:43:00,
2013-04-06 03:53:00,40.0,37.0,-100.00,SSE,156,5.0,14.0,90,0.01,,,0.09,0.000000,,2013-04-06 10:53:00,
2013-04-06 04:02:00,40.0,37.0,-100.00,SSE,156,5.0,14.0,90,0.01,,,0.09,0.000000,,2013-04-06 11:02:00,
2013-04-06 04:12:00,40.0,37.0,-100.00,SSE,156,5.0,14.0,90,0.01,,,0.09,0.000000,,2013-04-06 11:12:00,
2013-04-06 04:33:00,39.0,37.0,-100.00,SSW,208,4.0,12.0,92,0.00,,,0.09,0.000000,,2013-04-06 11:33:00,
2013-04-06 04:43:00,39.0,37.0,-100.00,SSW,208,4.0,12.0,92,0.00,,,0.09,0.000000,,2013-04-06 11:43:00,
2013-04-06 04:52:00,39.0,37.0,-100.00,SSW,208,4.0,12.0,92,0.00,,,0.09,0.000000,,2013-04-06 11:52:00,
2013-04-06 05:02:00,39.0,37.0,-100.00,SSW,208,4.0,12.0,92,0.00,,,0.09,0.000000,,2013-04-06 12:02:00,
2013-04-06 05:12:00,39.0,37.0,-100.00,SSW,208,4.0,12.0,92,0.00,,,0.09,0.000000,,2013-04-06 12:12:00,
2013-04-06 05:33:00,38.0,33.0,-100.00,South,187,3.0,13.0,81,0.00,,,-99.99,0.000000,,2013-04-06 12:33:00,
2013-04-06 05:44:00,38.0,33.0,-100.00,South,187,3.0,13.0,81,0.00,,,-99.99,0.000000,,2013-04-06 12:44:00,
2013-04-06 05:52:00,38.0,33.0,-100.00,South,187,3.0,13.0,81,0.00,,,-99.99,0.000000,,2013-04-06 12:52:00,
2013-04-06 06:02:00,38.0,33.0,-100.00,South,187,3.0,13.0,81,0.00,,,-99.99,0.000000,,2013-04-06 13:02:00,
2013-04-06 06:12:00,38.0,33.0,-100.00,South,187,3.0,13.0,81,0.00,,,-99.99,0.000000,,2013-04-06 13:12:00,
2013-04-06 06:33:00,38.0,32.0,-100.00,WSW,242,7.0,13.0,80,0.00,,,0.07,0.000000,,2013-04-06 13:33:00,
2013-04-06 06:43:00,38.0,32.0,-100.00,WSW,242,7.0,13.0,80,0.00,,,0.07,0.000000,,2013-04-06 13:43:00,
2013-04-06 06:53:00,38.0,32.0,-100.00,WSW,242,7.0,13.0,80,0.00,,,0.07,0.000000,,2013-04-06 13:53:00,
2013-04-06 07:03:00,38.0,32.0,-100.00,WSW,242,7.0,13.0,80,0.00,,,0.07,0.000000,,2013-04-06 14:03:00,
2013-04-06 07:11:00,38.0,32.0,-100.00,WSW,242,7.0,13.0,80,0.00,,,0.07,0.000000,,2013-04-06 14:11:00,
2013-04-06 07:43:00,40.0,31.0,-100.00,SW,232,7.0,19.0,70,0.00,,,0.07,7.000000,,2013-04-06 14:43:00,
2013-04-06 07:53:00,40.0,31.0,-100.00,SW,232,7.0,19.0,70,0.00,,,0.07,7.000000,,2013-04-06 14:53:00,
2013-04-06 08:02:00,40.0,31.0,-100.00,SW,232,7.0,19.0,70,0.00,,,0.07,7.000000,,2013-04-06 15:02:00,
2013-04-06 08:11:00,40.0,31.0,-100.00,SW,232,7.0,19.0,70,0.00,,,0.07,7.000000,,2013-04-06 15:11:00,
2013-04-06 08:33:00,39.0,33.0,-100.00,South,189,2.0,16.0,80,0.00,,,0.06,44.000000,,2013-04-06 15:33:00,
2013-04-06 08:43:00,39.0,33.0,-100.00,South,189,2.0,16.0,80,0.00,,,0.06,44.000000,,2013-04-06 15:43:00,
2013-04-06 08:53:00,39.0,33.0,-100.00,South,189,2.0,16.0,80,0.00,,,0.06,44.000000,,2013-04-06 15:53:00,
2013-04-06 09:04:00,39.0,33.0,-100.00,South,189,2.0,16.0,80,0.00,,,0.06,44.000000,,2013-04-06 16:04:00,
2013-04-06 09:33:00,41.0,36.0,-100.00,SSW,199,3.0,9.0,83,0.00,,,0.06,96.000000,,2013-04-06 16:33:00,
2013-04-06 09:43:00,41.0,36.0,-100.00,SSW,199,3.0,9.0,83,0.00,,,0.06,96.000000,,2013-04-06 16:43:00,
2013-04-06 09:53:00,41.0,36.0,-100.00,SSW,199,3.0,9.0,83,0.00,,,0.06,96.000000,,2013-04-06 16:53:00,
2013-04-06 10:02:00,41.0,36.0,-100.00,SSW,199,3.0,9.0,83,0.00,,,0.06,96.000000,,2013-04-06 17:02:00,
2013-04-06 10:12:00,41.0,36.0,-100.00,SSW,199,3.0,9.0,83,0.00,,,0.06,96.000000,,2013-04-06 17:12:00,
2013-04-06 10:33:00,44.0,32.0,-100.00,West,265,7.0,15.0,62,0.00,,,0.06,176.000000,,2013-04-06 17:33:00,
2013-04-06 10:43:00,44.0,32.0,-100.00,West,265,7.0,15.0,62,0.00,,,0.06,176.000000,,2013-04-06 17:43:00,
2013-04-06 10:52:00,44.0,32.0,-100.00,West,265,7.0,15.0,62,0.00,,,0.06,176.000000,,2013-04-06 17:52:00,
2013-04-06 11:02:00,44.0,32.0,-100.00,West,265,7.0,15.0,62,0.00,,,0.06,176.000000,,2013-04-06 18:02:00,
2013-04-06 11:12:00,44.0,32.0,-100.00,West,265,7.0,15.0,62,0.00,,,0.06,176.000000,,2013-04-06 18:12:00,
2013-04-06 11:43:00,48.0,32.0,-100.00,WSW,241,7.0,24.0,53,0.00,,,0.06,533.000000,,2013-04-06 18:43:00,
2013-04-06 11:52:00,48.0,32.0,-100.00,WSW,241,7.0,24.0,53,0.00,,,0.06,533.000000,,2013-04-06 18:52:00,
2013-04-06 12:02:00,48.0,32.0,-100.00,WSW,241,7.0,24.0,53,0.00,,,0.06,533.000000,,2013-04-06 19:02:00,
2013-04-06 12:12:00,48.0,32.0,-100.00,WSW,241,7.0,24.0,53,0.00,,,0.06,533.000000,,2013-04-06 19:12:00,
2013-04-06 12:33:00,49.0,34.0,-100.00,SW,233,10.0,20.0,56,0.00,,,0.06,858.000000,,2013-04-06 19:33:00,
2013-04-06 12:42:00,49.0,34.0,-100.00,SW,233,10.0,20.0,56,0.00,,,0.06,858.000000,,2013-04-06 19:42:00,
2013-04-06 12:53:00,49.0,34.0,-100.00,SW,233,10.0,20.0,56,0.00,,,0.06,858.000000,,2013-04-06 19:53:00,
2013-04-06 13:02:00,49.0,34.0,-100.00,SW,233,10.0,20.0,56,0.00,,,0.06,858.000000,,2013-04-06 20:02:00,
2013-04-06 13:12:00,49.0,34.0,-100.00,SW,233,10.0,20.0,56,0.00,,,0.06,858.000000,,2013-04-06 20:12:00,
2013-04-06 13:42:00,52.0,31.0,-100.00,SW,229,11.0,26.0,45,0.00,,,0.06,990.000000,,2013-04-06 20:42:00,
2013-04-06 13:52:00,52.0,31.0,-100.00,SW,229,11.0,26.0,45,0.00,,,0.06,990.000000,,2013-04-06 20:52:00,
2013-04-06 14:02:00,52.0,31.0,-100.00,SW,229,11.0,26.0,45,0.00,,,0.06,990.000000,,2013-04-06 21:02:00,
2013-04-06 14:12:00,52.0,31.0,-100.00,SW,229,11.0,26.0,45,0.00,,,0.06,990.000000,,2013-04-06 21:12:00,
2013-04-06 14:33:00,51.0,33.0,-100.00,SSW,200,5.0,22.0,49,0.00,,,0.06,742.000000,,2013-04-06 21:33:00,
2013-04-06 14:43:00,51.0,33.0,-100.00,SSW,200,5.0,22.0,49,0.00,,,0.06,742.000000,,2013-04-06 21:43:00,
2013-04-06 14:53:00,51.0,33.0,-100.00,SSW,200,5.0,22.0,49,0.00,,,0.06,742.000000,,2013-04-06 21:53:00,
2013-04-06 15:02:00,51.0,33.0,-100.00,SSW,200,5.0,22.0,49,0.00,,,0.06,742.000000,,2013-04-06 22:02:00,
2013-04-06 15:12:00,51.0,33.0,-100.00,SSW,200,5.0,22.0,49,0.00,,,0.06,742.000000,,2013-04-06 22:12:00,
2013-04-06 15:44:00,51.0,30.0,-100.00,SW,225,7.0,20.0,44,0.00,,,0.06,666.000000,,2013-04-06 22:44:00,
2013-04-06 15:53:00,51.0,30.0,-100.00,SW,225,7.0,20.0,44,0.00,,,0.06,666.000000,,2013-04-06 22:53:00,
2013-04-06 16:03:00,51.0,30.0,-100.00,SW,225,7.0,20.0,44,0.00,,,0.06,666.000000,,2013-04-06 23:03:00,
2013-04-06 16:13:00,51.0,30.0,-100.00,SW,225,7.0,20.0,44,0.00,,,0.06,666.000000,,2013-04-06 23:13:00,
2013-04-06 16:34:00,48.0,29.0,-100.00,WSW,244,5.0,19.0,48,0.00,,,0.06,465.000000,,2013-04-06 23:34:00,
2013-04-06 16:43:00,48.0,29.0,-100.00,WSW,244,5.0,19.0,48,0.00,,,0.06,465.000000,,2013-04-06 23:43:00,
2013-04-06 16:53:00,48.0,29.0,-100.00,WSW,244,5.0,19.0,48,0.00,,,0.06,465.000000,,2013-04-06 23:53:00,
2013-04-06 17:02:00,48.0,29.0,-100.00,WSW,244,5.0,19.0,48,0.00,,,0.06,465.000000,,2013-04-07 00:02:00,
2013-04-06 18:33:00,44.0,33.0,-100.00,South,184,6.0,13.0,65,-99.99,,,0.04,166.000000,,2013-04-07 01:33:00,
2013-04-06 18:43:00,44.0,33.0,-100.00,South,184,6.0,13.0,65,-99.99,,,0.04,166.000000,,2013-04-07 01:43:00,
2013-04-06 18:53:00,44.0,33.0,-100.00,South,184,6.0,13.0,65,-99.99,,,0.04,166.000000,,2013-04-07 01:53:00,
2013-04-06 19:02:00,44.0,33.0,-100.00,South,184,6.0,13.0,65,-99.99,,,0.04,166.000000,,2013-04-07 02:02:00,
2013-04-06 19:12:00,44.0,33.0,-100.00,South,184,6.0,13.0,65,-99.99,,,0.04,166.000000,,2013-04-07 02:12:00,
2013-04-06 19:43:00,40.0,34.0,-100.00,South,174,6.0,13.0,79,0.00,,,0.04,72.000000,,2013-04-07 02:43:00,
2013-04-06 19:52:00,40.0,34.0,-100.00,South,174,6.0,13.0,79,0.00,,,0.04,72.000000,,2013-04-07 02:52:00,
2013-04-06 20:02:00,40.0,34.0,-100.00,South,174,6.0,13.0,79,0.00,,,0.04,72.000000,,2013-04-07 03:02:00,
2013-04-06 20:12:00,40.0,34.0,-100.00,South,174,6.0,13.0,79,0.00,,,0.04,72.000000,,2013-04-07 03:12:00,
2013-04-06 20:35:00,38.0,34.0,-100.00,SSE,163,5.0,10.0,87,0.01,,,0.04,7.000000,,2013-04-07 03:35:00,
2013-04-06 20:44:00,38.0,34.0,-100.00,SSE,163,5.0,10.0,87,0.01,,,0.04,7.000000,,2013-04-07 03:44:00,
2013-04-06 20:54:00,38.0,34.0,-100.00,SSE,163,5.0,10.0,87,0.01,,,0.04,7.000000,,2013-04-07 03:54:00,
2013-04-06 21:03:00,38.0,34.0,-100.00,SSE,163,5.0,10.0,87,0.01,,,0.04,7.000000,,2013-04-07 04:03:00,
2013-04-06 21:12:00,38.0,34.0,-100.00,SSE,163,5.0,10.0,87,0.01,,,0.04,7.000000,,2013-04-07 04:12:00,
2013-04-06 21:32:00,36.0,34.0,-100.00,South,185,5.0,11.0,93,0.01,,,0.05,0.000000,,2013-04-07 04:32:00,
2013-04-06 21:43:00,36.0,34.0,-100.00,South,185,5.0,11.0,93,0.01,,,0.05,0.000000,,2013-04-07 04:43:00,
2013-04-06 21:53:00,36.0,34.0,-100.00,South,185,5.0,11.0,93,0.01,,,0.05,0.000000,,2013-04-07 04:53:00,
2013-04-06 22:02:00,36.0,34.0,-100.00,South,185,5.0,11.0,93,0.01,,,0.05,0.000000,,2013-04-07 05:02:00,
2013-04-06 22:11:00,36.0,34.0,-100.00,South,185,5.0,11.0,93,0.01,,,0.05,0.000000,,2013-04-07 05:11:00,
2013-04-06 22:34:00,36.0,34.0,-100.00,South,178,5.0,11.0,93,0.02,,,0.06,0.000000,,2013-04-07 05:34:00,
2013-04-06 22:43:00,36.0,34.0,-100.00,South,178,5.0,11.0,93,0.02,,,0.06,0.000000,,2013-04-07 05:43:00,
2013-04-06 22:52:00,36.0,34.0,-100.00,South,178,5.0,11.0,93,0.02,,,0.06,0.000000,,2013-04-07 05:52:00,
2013-04-06 23:02:00,36.0,34.0,-100.00,South,178,5.0,11.0,93,0.02,,,0.06,0.000000,,2013-04-07 06:02:00,
2013-04-06 23:12:00,36.0,34.0,-100.00,South,178,5.0,11.0,93,0.02,,,0.06,0.000000,,2013-04-07 06:12:00,
2013-04-06 23:43:00,37.0,35.0,-100.00,South,174,4.0,17.0,94,0.01,,,0.06,0.000000,,2013-04-07 06:43:00,
2013-04-06 23:52:00,37.0,35.0,-100.00,South,174,4.0,17.0,94,0.01,,,0.06,0.000000,,2013-04-07 06:52:00,